CAPE
3 3 4 3 3 2 2 3 2 2 2 2 2 2 1 1 3 3 3 2 2 1 0 1 1 1 1 3 3 3 5 5 5 5 4 3 1 1 0 0 0 0 1 4 4 7 7 9 9 9 9 11 12 12 15 18 18 20 24 33 33 41 52 60 60 73 72 73 70 70 59 49 41 41 25 20 15 15 16 17 17 17 20 25 25 30
3 3 3 2 2 1 2 3 3 3 2 2 2 2 2 2 2 2 1 2 2 1 0 1 1 1 0 3 2 2 3 3 3 3 3 2 1 1 1 2 2 4 4 6 6 5 4 3 3 5 6 6 7 7 8 12 12 14 17 26 26 33 40 46 46 50 51 49 44 44 39 33 26 26 19 17 19 19 22 28 28 29 29 33 33 36
3 2 2 2 2 2 2 3 4 4 4 3 4 4 4 3 2 2 2 0 0 nan nan 1 1 0 0 1 4 4 4 3 3 3 3 3 3 3 2 2 2 2 2 0 0 1 1 1 1 2 2 3 5 5 6 9 9 11 15 20 20 26 33 34 34 33 32 29 27 27 24 19 19 19 16 19 26 26 29 35 35 34 36 37 37 42
3 1 2 4 4 3 2 3 4 4 3 3 3 3 3 3 3 3 3 1 1 nan nan 0 0 0 nan nan 3 3 6 6 4 4 5 4 3 3 1 0 0 0 nan nan nan nan 0 0 0 0 1 4 8 8 12 14 14 15 18 20 20 24 28 26 26 25 18 17 16 16 12 13 14 14 14 19 24 24 27 29 29 31 32 37 37 46
2 3 3 3 3 2 3 3 5 5 5 4 4 4 4 4 4 4 4 1 1 0 nan nan nan nan nan nan 0 0 3 5 4 4 4 2 1 1 0 nan nan nan nan nan nan nan nan nan nan 0 3 7 15 15 19 23 23 22 19 23 23 21 22 17 17 15 10 8 6 6 7 9 12 12 15 16 20 20 20 23 23 22 26 31 31 36
2 3 3 3 3 2 4 5 5 5 3 4 4 4 3 3 3 3 1 nan nan nan nan nan nan nan nan nan nan nan nan nan 1 1 0 0 nan nan nan nan nan nan nan nan nan nan nan nan nan 0 2 8 13 13 15 17 17 17 17 14 14 11 6 6 6 7 7 5 5 5 8 10 12 12 13 16 17 17 18 19 19 18 20 25 25 31
3 4 3 3 3 3 4 6 5 5 3 3 2 2 1 0 nan nan nan nan nan nan nan nan nan nan nan nan nan nan nan nan nan nan nan nan nan nan nan nan nan nan nan nan nan nan nan nan nan nan 0 3 7 7 9 12 12 14 13 10 10 7 4 4 4 3 4 5 7 7 8 9 11 11 13 14 15 15 16 17 17 19 22 25 25 27
2 1 nan 0 0 1 2 2 1 1 2 0 nan nan nan nan nan nan nan nan nan nan nan nan nan nan nan nan nan nan nan nan nan nan nan nan nan nan nan nan nan nan nan nan nan nan nan nan nan nan nan nan 0 0 2 4 4 5 6 5 5 6 5 5 5 5 4 3 3 3 4 6 6 6 8 8 11 11 13 15 15 21 23 25 25 30
nan nan nan nan nan nan nan nan nan nan nan nan nan nan nan nan nan nan nan nan nan nan nan nan nan nan nan nan nan nan nan nan nan nan nan nan nan nan nan nan nan nan nan nan nan nan nan nan nan nan nan nan 0 0 1 2 2 3 4 3 3 3 2 2 2 2 2 2 2 2 2 3 4 4 6 8 10 10 12 13 13 18 23 27 27 35
nan nan nan nan nan nan nan nan nan nan nan nan nan nan nan nan nan nan nan nan nan nan nan nan nan nan nan nan nan nan nan nan nan nan nan nan nan nan nan nan nan nan nan nan nan nan nan nan nan nan nan nan 0 0 1 1 1 2 1 2 2 1 1 1 1 1 0 0 0 0 2 4 7 7 8 9 11 11 13 15 15 19 24 30 30 38
nan nan nan nan nan nan nan nan nan nan nan nan nan nan nan nan nan nan nan nan nan nan nan nan nan nan nan nan nan nan nan nan nan nan nan nan nan nan nan nan nan nan nan nan nan nan nan nan nan nan nan nan 0 0 0 0 0 0 0 nan nan nan nan nan nan nan nan 0 0 0 4 7 8 8 10 12 13 13 14 16 16 18 20 28 28 33
nan nan nan nan nan nan nan nan nan nan nan nan nan nan nan nan nan nan nan nan nan nan nan nan nan nan nan nan nan nan nan nan nan nan nan nan nan nan nan nan nan nan nan nan nan nan nan nan nan nan nan nan nan nan nan nan nan nan nan nan nan nan nan nan nan nan nan 1 4 4 7 9 12 12 14 14 16 16 15 17 17 19 20 21 21 25
nan nan nan nan nan nan nan nan nan nan nan nan nan nan nan nan nan nan nan nan nan nan nan nan nan nan nan nan nan nan nan nan nan nan nan nan nan nan nan nan nan nan nan nan nan nan nan nan nan nan nan nan nan nan nan nan nan nan nan nan nan nan nan nan nan 0 2 5 8 8 9 9 12 12 15 14 18 18 18 17 17 17 18 19 19 20
nan nan nan nan nan nan nan nan nan nan nan nan nan nan nan nan nan nan nan nan nan nan nan nan nan nan nan nan nan nan nan nan nan nan nan nan nan nan nan nan nan nan nan nan nan nan nan nan nan nan nan nan nan nan nan nan nan nan nan nan nan nan 0 1 1 3 6 9 8 8 9 9 11 11 12 15 18 18 17 17 17 17 17 19 19 20
nan nan nan nan nan nan nan nan nan nan nan nan nan nan nan nan nan nan nan nan nan nan nan nan nan nan nan nan nan nan nan nan nan nan nan nan nan nan nan nan nan nan nan nan nan nan nan nan nan nan nan nan nan nan nan nan nan 0 0 1 1 2 3 5 5 7 8 9 9 9 10 10 11 11 12 13 14 14 14 15 15 16 17 18 18 19
nan nan nan nan nan nan nan nan nan nan nan nan nan nan nan nan nan nan nan nan nan nan nan nan nan nan nan nan nan nan nan nan nan nan nan nan nan nan nan nan nan nan nan nan nan nan nan nan nan nan nan nan nan nan nan 1 1 2 2 3 3 4 5 6 6 8 9 10 10 10 12 11 11 11 12 12 13 13 12 14 14 13 15 16 16 18
nan nan nan nan nan nan nan nan nan nan nan nan nan nan nan nan nan nan nan nan nan nan nan nan nan nan nan nan nan nan nan nan nan nan nan nan nan nan nan nan nan nan nan nan nan nan nan nan nan nan nan nan nan nan nan 1 1 2 3 4 4 5 6 6 6 8 9 10 11 11 12 12 12 12 11 12 11 11 11 13 13 13 15 17 17 17
nan nan nan nan nan nan nan nan nan nan nan nan nan nan nan nan nan nan nan nan nan nan nan nan nan nan nan nan nan nan nan nan nan nan nan nan nan nan nan nan nan nan nan nan nan nan nan nan nan nan nan nan nan nan nan 0 0 1 2 3 3 3 4 6 6 7 9 9 10 10 11 12 12 12 11 11 10 10 10 12 12 14 14 16 16 17
nan nan nan nan nan nan nan nan nan nan nan nan nan nan nan nan nan nan nan nan nan nan nan nan nan nan nan nan nan nan nan nan nan nan nan nan nan nan nan nan nan nan nan nan nan nan nan nan nan nan nan nan nan nan nan nan nan 1 1 2 2 2 3 5 5 7 8 8 9 9 10 10 11 11 11 10 10 10 11 12 12 13 14 15 15 15
nan nan nan nan nan nan nan nan nan nan nan nan nan nan nan nan nan nan nan nan nan nan nan nan nan nan nan nan nan nan nan nan nan nan nan nan nan nan nan nan nan nan nan nan nan nan nan nan nan nan nan nan nan nan nan nan nan 0 0 1 1 2 2 3 3 5 7 8 8 8 9 9 9 9 10 9 9 9 10 11 11 11 13 13 13 15
nan nan nan nan nan nan nan nan nan nan nan nan nan nan nan nan nan nan nan nan nan nan nan nan nan 0 nan nan nan nan nan nan nan nan nan nan nan nan nan nan nan nan nan nan nan nan nan nan nan nan nan nan nan nan nan nan nan 0 0 0 0 1 1 2 2 3 6 6 8 8 8 8 8 8 9 9 9 9 9 10 10 11 12 12 12 14
nan nan nan nan nan nan nan nan nan nan nan nan nan nan nan nan nan nan nan nan nan nan nan 0 0 nan nan nan nan nan nan nan nan nan nan nan nan nan nan nan nan nan nan nan nan nan nan nan nan nan nan nan nan nan nan nan nan nan nan 0 0 0 1 2 2 3 6 8 8 8 8 9 8 8 9 9 9 9 10 10 10 10 11 12 12 14
nan nan nan nan nan nan nan nan nan nan nan nan 1 1 nan nan 5 5 nan nan nan nan 2 0 0 nan nan nan nan nan nan nan nan nan nan nan nan nan nan nan nan nan nan nan nan nan nan nan nan nan nan nan nan nan nan 0 0 0 0 0 0 0 1 2 2 4 7 8 8 8 8 8 9 9 8 9 9 9 9 9 9 11 12 12 12 15
nan nan nan nan nan nan nan nan nan nan nan nan nan nan nan nan nan nan nan nan nan nan nan nan nan nan nan nan nan nan nan nan nan nan nan 0 nan nan nan nan nan nan nan nan nan nan nan nan nan nan nan nan 0 0 0 1 1 1 0 1 1 1 3 5 5 7 8 7 7 7 7 7 8 8 8 8 9 9 8 9 9 10 12 14 14 15
nan nan nan nan nan nan nan nan nan nan nan nan nan nan nan nan nan nan nan nan nan nan nan 5 5 3 0 nan nan nan nan nan nan nan nan 0 nan nan nan nan nan nan nan nan nan nan nan nan nan nan nan nan nan nan 1 1 1 1 3 3 3 3 5 5 5 4 5 5 4 4 4 5 6 6 7 7 8 8 9 10 10 12 13 14 14 15
nan nan nan nan nan nan 1 5 4 4 6 nan nan nan nan nan nan nan nan nan nan nan 3 3 3 nan nan nan nan nan nan nan nan nan nan 0 nan nan nan nan nan nan nan nan nan nan nan nan nan nan nan nan nan nan nan 2 2 3 3 3 3 3 3 3 3 3 3 3 3 3 3 4 5 5 5 7 8 8 9 9 9 12 12 13 13 14
10 3 4 6 6 7 6 3 0 0 nan nan 1 1 nan nan nan nan nan 1 1 5 4 0 0 nan nan nan nan nan nan nan nan nan nan nan nan nan nan nan nan nan nan nan nan nan nan nan nan nan nan nan nan nan nan 0 0 1 1 1 1 1 1 1 1 1 1 1 1 1 1 2 3 3 4 7 8 8 9 10 10 11 12 13 13 14
4 4 4 3 3 1 nan nan nan nan nan nan nan nan 1 nan 0 0 3 2 2 6 3 0 0 nan nan nan nan nan nan nan nan nan nan nan 0 0 nan nan nan nan nan nan nan nan nan nan nan nan nan nan nan nan nan nan nan nan nan nan nan nan nan nan nan nan nan nan 0 0 1 2 3 3 4 7 8 8 9 10 10 10 11 9 9 7
nan nan nan nan nan nan nan nan nan nan nan 0 0 0 4 1 3 3 2 0 0 2 2 0 0 nan nan nan nan nan nan nan nan nan nan nan 1 1 nan nan nan nan nan nan nan nan nan nan nan nan nan nan nan nan nan nan nan nan nan nan nan nan nan nan nan nan nan nan 0 0 1 2 3 3 4 5 7 7 9 9 9 10 10 6 6 5
nan nan nan nan nan nan nan nan nan nan nan 0 2 2 0 nan 2 2 0 nan nan 0 0 0 0 nan nan nan nan nan nan nan nan nan nan nan 0 0 nan nan nan nan nan nan nan nan nan nan nan nan nan nan nan nan nan nan nan nan nan nan nan nan nan nan nan nan nan nan 0 0 1 2 4 4 4 5 6 6 8 9 9 9 6 5 5 6
nan nan nan nan nan nan nan nan nan nan nan nan 0 0 nan nan nan nan nan nan nan nan nan nan nan nan nan nan nan nan nan nan nan nan nan nan nan nan nan 0 0 0 nan nan nan nan nan nan nan nan nan nan nan nan nan nan nan nan nan nan nan nan nan nan nan nan nan nan nan nan 0 2 2 2 3 5 6 6 8 10 10 10 5 6 6 8
nan nan nan nan nan nan nan nan nan nan nan nan nan nan nan nan nan nan nan nan nan nan nan nan nan nan nan 1 0 0 nan nan nan nan nan nan 2 2 2 1 1 1 2 1 1 nan nan nan nan nan nan nan nan nan nan nan nan nan nan nan nan nan nan nan nan nan nan nan nan nan nan nan 0 0 1 2 5 5 6 8 8 9 8 6 6 6
nan nan nan nan nan nan nan nan nan nan nan nan nan nan nan nan nan nan nan nan nan nan nan nan nan nan nan nan 0 0 0 nan 0 0 1 2 2 2 1 1 1 1 1 0 0 1 nan nan nan nan nan nan nan nan nan nan nan nan nan nan nan nan nan nan nan nan nan nan nan nan nan nan nan nan nan 0 2 2 3 5 5 8 10 6 6 8
nan nan nan nan nan nan nan nan nan nan nan nan nan nan nan nan nan nan nan nan nan nan nan nan nan nan nan nan nan nan nan nan 0 0 2 3 1 1 2 2 2 1 1 0 0 0 nan nan nan nan nan nan nan nan nan nan nan nan nan nan nan nan nan nan nan nan nan nan nan nan nan nan nan nan nan nan 0 0 1 4 4 8 13 15 15 17
nan nan nan nan nan nan nan nan nan nan nan nan nan nan nan nan nan nan nan nan nan nan nan nan nan nan nan nan 0 0 nan nan nan nan 2 3 2 2 2 1 1 1 1 0 0 0 nan nan nan nan nan nan nan nan nan nan nan nan nan nan nan nan nan nan nan nan nan nan nan nan nan nan nan nan nan nan 0 0 2 6 6 9 12 16 16 14
nan nan nan nan nan nan nan nan nan nan nan nan nan nan nan nan nan nan nan nan nan nan nan nan nan nan nan nan 0 0 nan nan 0 0 4 4 3 3 2 1 1 2 1 1 1 1 0 nan nan 0 0 nan nan nan nan nan nan nan nan nan nan nan nan nan nan nan nan nan nan nan nan nan nan nan nan nan 0 0 3 6 6 7 8 10 10 10
nan nan nan nan nan nan nan nan nan nan nan nan nan nan nan nan nan nan nan nan nan nan nan nan nan nan nan nan 1 1 1 2 3 3 6 8 4 4 3 2 2 3 2 2 2 1 1 1 1 0 nan nan nan nan nan nan nan nan nan nan nan nan nan nan nan nan nan nan nan nan nan nan nan nan nan 0 0 0 1 2 2 1 2 3 3 6
nan nan nan nan nan nan nan nan nan nan nan nan nan nan nan nan nan nan nan nan nan nan nan nan nan nan nan 1 1 1 2 2 3 3 6 10 9 9 5 4 4 4 4 4 4 3 2 1 1 0 nan nan nan nan 0 nan nan nan nan nan nan nan nan nan nan nan nan nan nan nan nan nan nan nan nan nan nan nan nan nan nan nan 0 0 0 1
nan nan nan nan nan nan nan nan nan nan nan nan nan nan nan nan nan nan nan nan nan nan nan nan nan nan nan nan nan nan 3 6 3 3 3 5 7 7 9 7 7 6 7 8 8 7 5 2 2 1 0 nan nan nan nan nan nan nan nan nan nan nan nan nan nan nan nan nan nan nan nan nan nan nan nan nan nan nan nan nan nan nan nan nan nan nan
nan nan nan nan nan nan nan nan nan nan 0 2 2 2 nan 0 0 0 nan nan nan nan nan nan nan nan nan nan nan nan 1 2 5 5 3 2 2 2 5 7 7 8 8 9 9 9 8 4 4 3 3 1 0 0 0 0 0 0 1 nan nan nan nan nan nan nan nan nan nan nan nan nan nan nan nan nan nan nan nan nan nan nan nan nan nan nan
nan nan nan nan nan nan nan nan 2 2 3 2 nan nan nan nan nan nan nan nan nan nan nan nan nan nan nan nan nan nan nan nan nan nan nan nan nan nan 2 5 5 8 8 8 8 8 9 6 6 5 3 3 3 3 2 1 1 2 3 0 0 nan nan nan nan nan nan nan nan nan nan nan nan nan nan nan nan nan nan nan nan nan nan nan nan nan
nan nan nan nan nan nan nan nan 3 3 0 nan nan nan nan nan nan nan nan nan nan nan nan nan nan nan nan nan nan nan nan nan nan nan nan nan nan nan nan nan nan 0 6 8 8 5 7 8 8 6 4 3 2 2 1 1 1 2 2 0 0 0 0 nan nan nan nan nan nan nan 0 nan nan nan nan nan nan nan 0 nan nan 0 0 0 0 0
nan nan nan nan nan nan nan 0 4 4 0 nan nan nan nan nan nan nan nan nan nan nan nan nan nan nan nan nan nan nan nan nan nan nan nan nan nan nan nan nan nan nan 0 4 4 5 6 8 8 6 5 4 3 3 1 1 1 1 1 1 1 1 0 nan nan nan nan 0 0 0 0 0 0 0 0 0 0 0 0 0 0 3 2 1 1 1
nan nan nan nan nan nan nan 0 nan nan nan nan nan nan nan nan 0 0 nan 0 0 0 nan nan nan 0 0 nan nan nan 0 1 nan nan nan nan nan nan nan nan nan nan nan 1 1 7 5 6 6 6 4 4 3 3 2 1 1 1 0 1 1 1 0 nan nan 0 0 0 0 0 0 0 0 0 0 1 0 0 1 0 0 0 1 1 1 0
nan nan nan nan nan nan nan 1 nan nan nan nan nan nan nan nan 0 0 0 0 0 0 0 2 2 1 nan nan nan nan 0 1 nan nan nan nan 4 4 2 1 1 0 0 1 1 3 4 5 5 5 4 4 4 4 3 2 2 1 1 1 1 2 1 1 1 1 1 0 0 0 0 1 1 1 1 0 0 0 0 0 0 0 0 0 0 0
nan nan nan nan nan nan 0 nan 0 0 0 0 0 0 0 nan 0 0 0 0 0 1 1 2 2 0 nan nan nan nan 0 0 1 1 1 1 3 3 6 4 4 1 0 2 2 1 3 5 5 6 6 6 6 6 3 2 2 1 0 1 1 1 1 0 0 1 0 0 0 0 0 2 2 2 1 1 0 0 1 1 1 0 1 0 0 0
nan nan nan nan nan nan nan nan nan nan nan nan 0 0 0 nan nan nan 0 1 1 2 1 2 2 0 nan nan 0 0 0 0 0 0 2 2 4 4 2 2 2 3 4 5 5 6 4 7 7 4 5 4 3 3 1 1 1 1 0 0 0 0 0 0 0 0 0 0 0 0 1 3 2 2 2 1 0 0 0 0 0 0 0 0 0 0
nan nan nan 0 0 0 nan nan 0 0 nan nan nan nan nan nan nan nan 0 1 1 2 1 0 0 nan nan nan nan nan 0 1 0 0 1 1 3 3 3 2 2 3 6 5 5 5 4 7 7 5 4 2 2 2 0 0 0 1 0 0 0 0 0 0 0 0 1 1 2 2 3 3 2 2 1 1 1 1 nan 0 0 nan 0 0 0 0
nan nan 0 1 1 nan nan 0 nan nan nan nan nan nan nan nan 2 2 0 1 1 1 0 nan nan nan nan nan nan nan 1 1 1 1 2 1 2 2 3 4 4 4 4 6 6 6 6 10 10 7 4 3 1 1 1 0 0 1 1 1 1 1 0 0 0 0 0 1 nan nan nan 1 1 1 1 1 0 0 0 nan nan nan 0 0 0 nan
nan nan 0 0 0 nan nan nan nan nan nan nan nan nan nan nan 0 0 0 0 0 0 0 nan nan nan nan nan 0 0 0 0 1 1 1 1 1 1 1 3 3 6 6 5 5 4 4 9 9 12 12 8 3 3 2 1 1 1 2 1 1 1 1 0 0 0 1 1 1 1 0 2 2 2 2 2 1 1 0 0 0 0 nan 0 0 0
nan nan nan nan nan nan nan nan nan nan nan nan nan nan nan nan 0 0 1 0 0 nan nan 0 0 nan nan nan 0 0 1 1 1 1 1 1 1 1 2 4 4 4 3 2 2 1 1 0 0 1 6 13 8 8 3 2 2 2 2 2 2 1 1 1 1 1 2 2 4 4 2 2 3 3 2 3 2 2 1 0 0 nan nan nan nan 0
CIN
-0 -0 -0 -0 -0 -0 -0 -0 -0 -0 -0 -0 -0 -0 -0 -0 -0 -0 -0 -0 -0 -0 -0 -0 -0 -0 -0 -0 -0 -0 -0 -0 -0 -0 -0 -0 -0 -0 -0 -0 -0 -0 -0 -0 -0 -0 -0 -0 -0 -0 -0 -0 -0 -0 -0 -0 -0 -0 -0 -0 -0 -0 -0 -0 -0 -0 -0 -0 -0 -0 -0 -0 -0 -0 -0 -0 -0 -0 -0 -0 -0 -0 -0 -0 -0 -0
-0 -0 -0 -0 -0 -0 -0 -0 -0 -0 -0 -0 -0 -0 -0 -0 -0 -0 -0 -0 -0 -0 -0 -0 -0 -0 -0 -0 -0 -0 -0 -0 -0 -0 -0 -0 -0 -0 -0 -0 -0 -0 -0 -0 -0 -0 -0 -0 -0 -0 -0 -0 -0 -0 -0 -0 -0 -0 -0 -0 -0 -0 -0 -0 -0 -0 -0 -0 -0 -0 -0 -0 -0 -0 -0 -0 -0 -0 -0 -0 -0 -0 -0 -0 -0 -0
-0 -0 -0 -0 -0 -0 -0 -0 -0 -0 -0 -0 -0 -0 -0 -0 -0 -0 -0 -0 -0 nan nan -0 -0 -0 -0 -0 -0 -0 -0 -0 -0 -0 -0 -0 -0 -0 -0 -0 -0 -0 -0 -0 -0 -0 -0 -0 -0 -0 -0 -0 -0 -0 -0 -0 -0 -0 -0 -0 -0 -0 -0 -0 -0 -0 -0 -0 -0 -0 -0 -0 -0 -0 -0 -0 -0 -0 -0 -0 -0 -0 -0 -0 -0 -0
-0 -0 -0 -0 -0 -0 -0 -0 -0 -0 -0 -0 -0 -0 -0 -0 -0 -0 -0 -0 -0 nan nan -0 -0 -0 nan nan -0 -0 -0 -0 -0 -0 -0 -0 -0 -0 -0 -0 -0 -0 nan nan nan nan -0 -0 -0 -0 -0 -0 -0 -0 -0 -0 -0 -0 -0 -0 -0 -0 -0 -0 -0 -0 -0 -0 -0 -0 -0 -0 -0 -0 -0 -0 -0 -0 -0 -0 -0 -0 -0 -0 -0 -0
-0 -0 -0 -0 -0 -0 -0 -0 -0 -0 -0 -0 -0 -0 -0 -0 -0 -0 -0 -0 -0 -0 nan nan nan nan nan nan -0 -0 -0 -0 -0 -0 -0 -0 -0 -0 -0 nan nan nan nan nan nan nan nan nan nan -0 -0 -0 -0 -0 -0 -0 -0 -0 -0 -0 -0 -0 -0 -0 -0 -0 -0 -0 -0 -0 -0 -0 -0 -0 -0 -0 -0 -0 -0 -0 -0 -0 -0 -0 -0 -0
-0 -0 -0 -0 -0 -0 -0 -0 -0 -0 -0 -0 -0 -0 -0 -0 -0 -0 -0 nan nan nan nan nan nan nan nan nan nan nan nan nan -0 -0 -0 -0 nan nan nan nan nan nan nan nan nan nan nan nan nan -0 -0 -0 -0 -0 -0 -0 -0 -0 -0 -0 -0 -0 -0 -0 -0 -0 -0 -0 -0 -0 -0 -0 -0 -0 -0 -0 -0 -0 -0 -0 -0 -0 -0 -0 -0 -0
-0 -0 -0 -0 -0 -0 -0 -0 -0 -0 -0 -0 -0 -0 -0 -0 nan nan nan nan nan nan nan nan nan nan nan nan nan nan nan nan nan nan nan nan nan nan nan nan nan nan nan nan nan nan nan nan nan nan -0 -0 -0 -0 -0 -0 -0 -0 -0 -0 -0 -0 -0 -0 -0 -0 -0 -0 -0 -0 -0 -0 -0 -0 -0 -0 -0 -0 -0 -0 -0 -0 -0 -0 -0 -0
-0 -0 nan -0 -0 -0 -0 -0 -0 -0 -0 -0 nan nan nan nan nan nan nan nan nan nan nan nan nan nan nan nan nan nan nan nan nan nan nan nan nan nan nan nan nan nan nan nan nan nan nan nan nan nan nan nan -0 -0 -0 -0 -0 -0 -0 -0 -0 -0 -0 -0 -0 -0 -0 -0 -0 -0 -0 -0 -0 -0 -0 -0 -0 -0 -0 -0 -0 -0 -0 -0 -0 -0
nan nan nan nan nan nan nan nan nan nan nan nan nan nan nan nan nan nan nan nan nan nan nan nan nan nan nan nan nan nan nan nan nan nan nan nan nan nan nan nan nan nan nan nan nan nan nan nan nan nan nan nan -0 -0 -0 -0 -0 -0 -0 -0 -0 -0 -0 -0 -0 -0 -0 -0 -0 -0 -0 -0 -0 -0 -0 -0 -0 -0 -0 -0 -0 -0 -0 -0 -0 -0
nan nan nan nan nan nan nan nan nan nan nan nan nan nan nan nan nan nan nan nan nan nan nan nan nan nan nan nan nan nan nan nan nan nan nan nan nan nan nan nan nan nan nan nan nan nan nan nan nan nan nan nan -0 -0 -0 -0 -0 -0 -0 -0 -0 -0 -0 -0 -0 -0 -0 -0 -0 -0 -0 -0 -0 -0 -0 -0 -0 -0 -0 -0 -0 -0 -0 -0 -0 -0
nan nan nan nan nan nan nan nan nan nan nan nan nan nan nan nan nan nan nan nan nan nan nan nan nan nan nan nan nan nan nan nan nan nan nan nan nan nan nan nan nan nan nan nan nan nan nan nan nan nan nan nan -0 -0 -0 -0 -0 -0 -0 nan nan nan nan nan nan nan nan -0 -0 -0 -0 -0 -0 -0 -0 -0 -0 -0 -0 -0 -0 -0 -0 -0 -0 -0
nan nan nan nan nan nan nan nan nan nan nan nan nan nan nan nan nan nan nan nan nan nan nan nan nan nan nan nan nan nan nan nan nan nan nan nan nan nan nan nan nan nan nan nan nan nan nan nan nan nan nan nan nan nan nan nan nan nan nan nan nan nan nan nan nan nan nan -0 -0 -0 -0 -0 -0 -0 -0 -0 -0 -0 -0 -0 -0 -0 -0 -0 -0 -0
nan nan nan nan nan nan nan nan nan nan nan nan nan nan nan nan nan nan nan nan nan nan nan nan nan nan nan nan nan nan nan nan nan nan nan nan nan nan nan nan nan nan nan nan nan nan nan nan nan nan nan nan nan nan nan nan nan nan nan nan nan nan nan nan nan -0 -0 -0 -0 -0 -0 -0 -0 -0 -0 -0 -0 -0 -0 -0 -0 -0 -0 -0 -0 -0
nan nan nan nan nan nan nan nan nan nan nan nan nan nan nan nan nan nan nan nan nan nan nan nan nan nan nan nan nan nan nan nan nan nan nan nan nan nan nan nan nan nan nan nan nan nan nan nan nan nan nan nan nan nan nan nan nan nan nan nan nan nan -0 -0 -0 -0 -0 -0 -0 -0 -0 -0 -0 -0 -0 -0 -0 -0 -0 -0 -0 -0 -0 -0 -0 -0
nan nan nan nan nan nan nan nan nan nan nan nan nan nan nan nan nan nan nan nan nan nan nan nan nan nan nan nan nan nan nan nan nan nan nan nan nan nan nan nan nan nan nan nan nan nan nan nan nan nan nan nan nan nan nan nan nan -0 -0 -0 -0 -0 -0 -0 -0 -0 -0 -0 -0 -0 -0 -0 -0 -0 -0 -0 -0 -0 -0 -0 -0 -0 -0 -0 -0 -0
nan nan nan nan nan nan nan nan nan nan nan nan nan nan nan nan nan nan nan nan nan nan nan nan nan nan nan nan nan nan nan nan nan nan nan nan nan nan nan nan nan nan nan nan nan nan nan nan nan nan nan nan nan nan nan -0 -0 -0 -0 -0 -0 -0 -0 -0 -0 -0 -0 -0 -0 -0 -0 -0 -0 -0 -0 -0 -0 -0 -0 -0 -0 -0 -0 -0 -0 -0
nan nan nan nan nan nan nan nan nan nan nan nan nan nan nan nan nan nan nan nan nan nan nan nan nan nan nan nan nan nan nan nan nan nan nan nan nan nan nan nan nan nan nan nan nan nan nan nan nan nan nan nan nan nan nan -0 -0 -0 -0 -0 -0 -0 -0 -0 -0 -0 -0 -0 -0 -0 -0 -0 -0 -0 -0 -0 -0 -0 -0 -0 -0 -0 -0 -0 -0 -0
nan nan nan nan nan nan nan nan nan nan nan nan nan nan nan nan nan nan nan nan nan nan nan nan nan nan nan nan nan nan nan nan nan nan nan nan nan nan nan nan nan nan nan nan nan nan nan nan nan nan nan nan nan nan nan -0 -0 -0 -0 -0 -0 -0 -0 -0 -0 -0 -0 -0 -0 -0 -0 -0 -0 -0 -0 -0 -0 -0 -0 -0 -0 -0 -0 -0 -0 -0
nan nan nan nan nan nan nan nan nan nan nan nan nan nan nan nan nan nan nan nan nan nan nan nan nan nan nan nan nan nan nan nan nan nan nan nan nan nan nan nan nan nan nan nan nan nan nan nan nan nan nan nan nan nan nan nan nan -0 -0 -0 -0 -0 -0 -0 -0 -0 -0 -0 -0 -0 -0 -0 -0 -0 -0 -0 -0 -0 -0 -0 -0 -0 -0 -0 -0 -0
nan nan nan nan nan nan nan nan nan nan nan nan nan nan nan nan nan nan nan nan nan nan nan nan nan nan nan nan nan nan nan nan nan nan nan nan nan nan nan nan nan nan nan nan nan nan nan nan nan nan nan nan nan nan nan nan nan -0 -0 -0 -0 -0 -0 -0 -0 -0 -0 -0 -0 -0 -0 -0 -0 -0 -0 -0 -0 -0 -0 -0 -0 -0 -0 -0 -0 -0
nan nan nan nan nan nan nan nan nan nan nan nan nan nan nan nan nan nan nan nan nan nan nan nan nan -0 nan nan nan nan nan nan nan nan nan nan nan nan nan nan nan nan nan nan nan nan nan nan nan nan nan nan nan nan nan nan nan -0 -0 -0 -0 -0 -0 -0 -0 -0 -0 -0 -0 -0 -0 -0 -0 -0 -0 -0 -0 -0 -0 -0 -0 -0 -0 -0 -0 -0
nan nan nan nan nan nan nan nan nan nan nan nan nan nan nan nan nan nan nan nan nan nan nan -2 -2 nan nan nan nan nan nan nan nan nan nan nan nan nan nan nan nan nan nan nan nan nan nan nan nan nan nan nan nan nan nan nan nan nan nan -0 -0 -0 -0 -0 -0 -0 -0 -0 -0 -0 -0 -0 -0 -0 -0 -0 -0 -0 -0 -0 -0 -0 -0 -0 -0 -0
nan nan nan nan nan nan nan nan nan nan nan nan -4 -4 nan nan -0 -0 nan nan nan nan -0 -0 -0 nan nan nan nan nan nan nan nan nan nan nan nan nan nan nan nan nan nan nan nan nan nan nan nan nan nan nan nan nan nan -0 -0 -0 -0 -0 -0 -0 -0 -0 -0 -0 -0 -0 -0 -0 -0 -0 -0 -0 -0 -0 -0 -0 -0 -0 -0 -0 -0 -0 -0 -0
nan nan nan nan nan nan nan nan nan nan nan nan nan nan nan nan nan nan nan nan nan nan nan nan nan nan nan nan nan nan nan nan nan nan nan -0 nan nan nan nan nan nan nan nan nan nan nan nan nan nan nan nan -0 -0 -0 -0 -0 -0 -0 -0 -0 -0 -0 -0 -0 -0 -0 -0 -0 -0 -0 -0 -0 -0 -0 -0 -0 -0 -0 -0 -0 -0 -0 -0 -0 -0
nan nan nan nan nan nan nan nan nan nan nan nan nan nan nan nan nan nan nan nan nan nan nan -0 -0 -0 -0 nan nan nan nan nan nan nan nan -0 nan nan nan nan nan nan nan nan nan nan nan nan nan nan nan nan nan nan -0 -0 -0 -0 -0 -0 -0 -0 -0 -0 -0 -0 -0 -0 -0 -0 -0 -0 -0 -0 -0 -0 -0 -0 -0 -0 -0 -0 -0 -0 -0 -0
nan nan nan nan nan nan -11 -0 -0 -0 -1 nan nan nan nan nan nan nan nan nan nan nan -0 -0 -0 nan nan nan nan nan nan nan nan nan nan -0 nan nan nan nan nan nan nan nan nan nan nan nan nan nan nan nan nan nan nan -0 -0 -0 -0 -0 -0 -0 -0 -0 -0 -0 -0 -0 -0 -0 -0 -0 -0 -0 -0 -0 -0 -0 -0 -0 -0 -0 -0 -0 -0 -0
-0 -2 -0 -0 -0 -0 -0 -0 -0 -0 nan nan -0 -0 nan nan nan nan nan -1 -1 -0 -0 -0 -0 nan nan nan nan nan nan nan nan nan nan nan nan nan nan nan nan nan nan nan nan nan nan nan nan nan nan nan nan nan nan -0 -0 -0 -0 -0 -0 -0 -0 -0 -0 -0 -0 -0 -0 -0 -0 -0 -0 -0 -0 -0 -0 -0 -0 -0 -0 -0 -0 -0 -0 -0
-0 -0 -0 -0 -0 -0 nan nan nan nan nan nan nan nan -1 nan -0 -0 -0 -0 -0 -0 -0 -0 -0 nan nan nan nan nan nan nan nan nan nan nan -0 -0 nan nan nan nan nan nan nan nan nan nan nan nan nan nan nan nan nan nan nan nan nan nan nan nan nan nan nan nan nan nan -0 -0 -0 -0 -0 -0 -0 -0 -0 -0 -0 -0 -0 -0 -0 -0 -0 -0
nan nan nan nan nan nan nan nan nan nan nan -0 -0 -0 -0 -0 -0 -0 -0 -0 -0 -0 -0 -0 -0 nan nan nan nan nan nan nan nan nan nan nan -0 -0 nan nan nan nan nan nan nan nan nan nan nan nan nan nan nan nan nan nan nan nan nan nan nan nan nan nan nan nan nan nan -0 -0 -0 -0 -0 -0 -0 -0 -0 -0 -0 -0 -0 -0 -0 -0 -0 -0
nan nan nan nan nan nan nan nan nan nan nan -0 -0 -0 -0 nan -0 -0 -0 nan nan -0 -0 -0 -0 nan nan nan nan nan nan nan nan nan nan nan -0 -0 nan nan nan nan nan nan nan nan nan nan nan nan nan nan nan nan nan nan nan nan nan nan nan nan nan nan nan nan nan nan -0 -0 -0 -0 -0 -0 -0 -0 -0 -0 -0 -0 -0 -0 -0 -0 -0 -0
nan nan nan nan nan nan nan nan nan nan nan nan -0 -0 nan nan nan nan nan nan nan nan nan nan nan nan nan nan nan nan nan nan nan nan nan nan nan nan nan -0 -0 -0 nan nan nan nan nan nan nan nan nan nan nan nan nan nan nan nan nan nan nan nan nan nan nan nan nan nan nan nan -0 -0 -0 -0 -0 -0 -0 -0 -0 -0 -0 -0 -0 -0 -0 -0
nan nan nan nan nan nan nan nan nan nan nan nan nan nan nan nan nan nan nan nan nan nan nan nan nan nan nan -0 -0 -0 nan nan nan nan nan nan -0 -0 -0 -0 -0 -0 -0 -0 -0 nan nan nan nan nan nan nan nan nan nan nan nan nan nan nan nan nan nan nan nan nan nan nan nan nan nan nan -0 -0 -0 -0 -0 -0 -0 -0 -0 -0 -0 -0 -0 -0
nan nan nan nan nan nan nan nan nan nan nan nan nan nan nan nan nan nan nan nan nan nan nan nan nan nan nan nan -0 -0 -0 nan -1 -1 -1 -0 -0 -0 -0 -0 -0 -0 -0 -0 -0 -0 nan nan nan nan nan nan nan nan nan nan nan nan nan nan nan nan nan nan nan nan nan nan nan nan nan nan nan nan nan -0 -0 -0 -0 -0 -0 -0 -0 -0 -0 -0
nan nan nan nan nan nan nan nan nan nan nan nan nan nan nan nan nan nan nan nan nan nan nan nan nan nan nan nan nan nan nan nan -0 -0 -0 -0 -0 -0 -0 -0 -0 -0 -0 -0 -0 -0 nan nan nan nan nan nan nan nan nan nan nan nan nan nan nan nan nan nan nan nan nan nan nan nan nan nan nan nan nan nan -0 -0 -0 -0 -0 -0 -0 -0 -0 -0
nan nan nan nan nan nan nan nan nan nan nan nan nan nan nan nan nan nan nan nan nan nan nan nan nan nan nan nan -0 -0 nan nan nan nan -0 -0 -0 -0 -0 -0 -0 -0 -0 -0 -0 -0 nan nan nan nan nan nan nan nan nan nan nan nan nan nan nan nan nan nan nan nan nan nan nan nan nan nan nan nan nan nan -0 -0 -0 -0 -0 -0 -0 -0 -0 -0
nan nan nan nan nan nan nan nan nan nan nan nan nan nan nan nan nan nan nan nan nan nan nan nan nan nan nan nan -0 -0 nan nan -0 -0 -0 -0 -0 -0 -0 -0 -0 -0 -0 -0 -0 -0 -0 nan nan -0 -0 nan nan nan nan nan nan nan nan nan nan nan nan nan nan nan nan nan nan nan nan nan nan nan nan nan -0 -0 -0 -0 -0 -0 -0 -0 -0 -0
nan nan nan nan nan nan nan nan nan nan nan nan nan nan nan nan nan nan nan nan nan nan nan nan nan nan nan nan -0 -0 -0 -0 -0 -0 -0 -0 -0 -0 -0 -0 -0 -0 -0 -0 -0 -0 -0 -0 -0 -0 nan nan nan nan nan nan nan nan nan nan nan nan nan nan nan nan nan nan nan nan nan nan nan nan nan -0 -0 -0 -0 -0 -0 -0 -0 -0 -0 -0
nan nan nan nan nan nan nan nan nan nan nan nan nan nan nan nan nan nan nan nan nan nan nan nan nan nan nan -1 -1 -1 -1 -1 -2 -2 -2 -0 -0 -0 -0 -0 -0 -0 -0 -0 -0 -0 -0 -0 -0 -0 nan nan nan nan -0 nan nan nan nan nan nan nan nan nan nan nan nan nan nan nan nan nan nan nan nan nan nan nan nan nan nan nan -0 -0 -0 -0
nan nan nan nan nan nan nan nan nan nan nan nan nan nan nan nan nan nan nan nan nan nan nan nan nan nan nan nan nan nan -1 -0 -6 -6 -7 -5 -1 -1 -0 -0 -0 -0 -0 -0 -0 -0 -0 -0 -0 -0 -0 nan nan nan nan nan nan nan nan nan nan nan nan nan nan nan nan nan nan nan nan nan nan nan nan nan nan nan nan nan nan nan nan nan nan nan
nan nan nan nan nan nan nan nan nan nan -1 -0 -2 -2 nan -7 -2 -2 nan nan nan nan nan nan nan nan nan nan nan nan -7 -7 -3 -3 -5 -7 -5 -5 -0 -0 -0 -0 -0 -0 -0 -0 -0 -0 -0 -0 -0 -0 -0 -0 -0 -0 -0 -0 -0 nan nan nan nan nan nan nan nan nan nan nan nan nan nan nan nan nan nan nan nan nan nan nan nan nan nan nan
nan nan nan nan nan nan nan nan -0 -0 -0 -1 nan nan nan nan nan nan nan nan nan nan nan nan nan nan nan nan nan nan nan nan nan nan nan nan nan nan -0 -0 -0 -0 -0 -0 -0 -0 -0 -0 -0 -0 -0 -0 -0 -0 -0 -0 -0 -0 -0 -0 -0 nan nan nan nan nan nan nan nan nan nan nan nan nan nan nan nan nan nan nan nan nan nan nan nan nan
nan nan nan nan nan nan nan nan -0 -0 -7 nan nan nan nan nan nan nan nan nan nan nan nan nan nan nan nan nan nan nan nan nan nan nan nan nan nan nan nan nan nan -0 -0 -0 -0 -0 -0 -0 -0 -0 -0 -0 -0 -0 -0 -0 -0 -0 -0 -0 -0 -0 -0 nan nan nan nan nan nan nan -0 nan nan nan nan nan nan nan -0 nan nan -0 -0 -0 -0 -0
nan nan nan nan nan nan nan -1 -0 -0 -3 nan nan nan nan nan nan nan nan nan nan nan nan nan nan nan nan nan nan nan nan nan nan nan nan nan nan nan nan nan nan nan -0 -0 -0 -0 -0 -0 -0 -0 -0 -0 -0 -0 -0 -0 -0 -0 -0 -0 -0 -0 -0 nan nan nan nan -0 -0 -0 -0 -0 -0 -0 -0 -0 -0 -0 -0 -0 -0 -0 -0 -0 -0 -0
nan nan nan nan nan nan nan -0 nan nan nan nan nan nan nan nan -0 -0 nan -0 -0 -0 nan nan nan -0 -0 nan nan nan -0 -0 nan nan nan nan nan nan nan nan nan nan nan -0 -0 -0 -0 -0 -0 -0 -0 -0 -0 -0 -0 -0 -0 -0 -0 -0 -0 -0 -0 nan nan -0 -0 -0 -0 -0 -0 -0 -0 -0 -0 -0 -0 -0 -0 -0 -0 -0 -0 -0 -0 -0
nan nan nan nan nan nan nan -1 nan nan nan nan nan nan nan nan -0 -0 -0 -0 -0 -0 -0 -0 -0 -0 nan nan nan nan -0 -0 nan nan nan nan -6 -6 -5 -3 -3 -4 -4 -0 -0 -0 -0 -0 -0 -0 -0 -0 -0 -0 -0 -0 -0 -0 -0 -0 -0 -0 -0 -0 -0 -0 -0 -0 -0 -0 -0 -0 -0 -0 -0 -0 -0 -0 -0 -0 -0 -0 -0 -0 -0 -0
nan nan nan nan nan nan -0 nan -0 -0 -0 -0 -0 -0 -0 nan -0 -0 -0 -0 -0 -0 -0 -0 -0 -0 nan nan nan nan -0 -0 -0 -0 -0 -5 -4 -4 -1 -1 -1 -1 -0 -0 -0 -0 -0 -0 -0 -0 -0 -0 -0 -0 -0 -0 -0 -0 -0 -0 -0 -0 -0 -0 -0 -0 -0 -0 -0 -0 -0 -0 -0 -0 -0 -0 -0 -0 -0 -0 -0 -0 -0 -0 -0 -0
nan nan nan nan nan nan nan nan nan nan nan nan -0 -0 -0 nan nan nan -0 -0 -0 -0 -0 -0 -0 -0 nan nan -0 -0 -0 -0 -0 -0 -0 -0 -0 -0 -1 -2 -2 -1 -0 -0 -0 -0 -0 -0 -0 -0 -0 -0 -0 -0 -0 -0 -0 -0 -0 -0 -0 -0 -0 -0 -0 -0 -0 -0 -0 -0 -0 -0 -0 -0 -0 -0 -0 -0 -0 -0 -0 -0 -0 -0 -0 -0
nan nan nan -0 -0 -0 nan nan -0 -0 nan nan nan nan nan nan nan nan -0 -0 -0 -0 -0 -0 -0 nan nan nan nan nan -0 -0 -0 -0 -0 -0 -0 -0 -0 -1 -1 -0 -0 -0 -0 -0 -0 -0 -0 -0 -0 -0 -0 -0 -0 -0 -0 -0 -0 -0 -0 -0 -0 -0 -0 -0 -0 -0 -0 -0 -0 -0 -0 -0 -0 -0 -0 -0 nan -0 -0 nan -0 -0 -0 -0
nan nan -0 -0 -0 nan nan -0 nan nan nan nan nan nan nan nan -0 -0 -0 -0 -0 -0 -0 nan nan nan nan nan nan nan -0 -0 -0 -0 -0 -0 -0 -0 -0 -0 -0 -0 -0 -0 -0 -0 -0 -0 -0 -0 -0 -0 -0 -0 -0 -0 -0 -0 -0 -0 -0 -0 -0 -0 -0 -0 -0 -0 nan nan nan -0 -0 -0 -0 -0 -0 -0 -0 nan nan nan -0 -0 -0 nan
nan nan -0 -0 -0 nan nan nan nan nan nan nan nan nan nan nan -0 -0 -0 -0 -0 -0 -0 nan nan nan nan nan -0 -0 -0 -0 -0 -0 -0 -0 -0 -0 -0 -0 -0 -0 -0 -0 -0 -0 -0 -0 -0 -0 -0 -0 -0 -0 -0 -0 -0 -0 -0 -0 -0 -0 -0 -0 -0 -0 -0 -0 -5 -5 -5 -0 -0 -0 -0 -0 -0 -0 -0 -0 -0 -0 nan -0 -0 -0
nan nan nan nan nan nan nan nan nan nan nan nan nan nan nan nan -0 -0 -0 -0 -0 nan nan -0 -0 nan nan nan -0 -0 -0 -0 -0 -0 -0 -0 -0 -0 -0 -0 -0 -0 -0 -0 -0 -0 -0 -0 -0 -0 -0 -0 -0 -0 -0 -0 -0 -0 -0 -0 -0 -0 -0 -0 -0 -0 -0 -0 -0 -0 -2 -0 -0 -0 -0 -0 -0 -0 -0 -0 -0 nan nan nan nan -0
Wind_Speed
1 1 1 1 1 1 1 2 2 2 1 2 2 3 3 3 3 4 5 5 5 5 4 4 5 5 6 7 7 7 6 6 5 5 4 3 2 2 1 2 2 2 3 3 4 4 5 5 6 6 7 7 8 9 9 10 10 10 11 11 11 12 12 11 11 11 11 11 10 10 10 9 8 7 7 6 7 7 7 8 8 8 8 9 9 9
1 1 1 2 1 1 1 2 2 2 2 2 2 3 3 3 3 3 4 4 4 4 4 4 4 5 5 6 6 7 6 5 4 4 3 2 2 2 2 2 2 2 3 4 4 5 5 6 6 7 8 8 9 9 10 10 10 11 11 11 11 11 11 11 10 10 10 9 9 8 8 8 8 7 7 7 7 7 8 8 8 9 9 9 9 10
1 1 1 2 2 2 1 2 2 2 2 2 3 3 3 3 3 3 3 3 3 3 3 3 3 4 5 5 6 7 6 5 4 4 3 3 2 2 3 3 3 4 4 5 6 6 7 7 8 8 8 9 9 9 10 10 10 10 10 10 10 10 9 9 9 8 8 7 7 7 7 7 7 7 7 8 8 8 8 9 9 9 9 9 10 10
1 1 1 1 2 2 2 2 2 2 2 2 2 3 3 3 3 2 3 3 3 3 3 3 3 3 4 4 5 6 7 6 5 5 4 4 4 4 4 5 5 5 6 6 7 8 8 8 9 9 9 9 9 9 9 9 9 9 9 8 8 7 8 7 7 7 6 6 6 6 6 7 7 7 8 8 8 9 9 9 9 9 9 9 9 9
1 1 1 1 1 1 2 2 2 2 2 2 2 2 3 2 2 2 2 2 2 3 2 3 3 3 3 3 4 6 7 7 6 5 5 5 5 5 5 6 6 7 7 8 8 9 9 9 10 10 10 10 10 9 9 9 9 8 7 6 6 5 5 6 6 5 5 5 5 6 6 7 7 8 8 8 9 9 9 9 9 9 8 8 9 9
1 1 1 1 1 1 1 1 1 1 2 2 2 2 2 2 2 2 2 2 2 2 2 2 3 3 3 3 4 5 6 6 6 6 6 6 6 6 6 6 7 7 8 8 9 9 10 10 10 10 11 10 10 10 9 9 8 7 6 6 5 5 5 5 5 5 6 6 6 7 7 8 8 8 9 9 9 9 9 9 9 9 8 8 8 8
1 1 1 1 1 0 0 1 1 1 1 1 1 1 1 1 2 2 2 2 2 2 2 2 2 2 3 3 4 4 5 5 6 6 7 7 7 7 7 7 8 8 9 9 9 10 10 11 11 11 11 11 11 10 10 10 9 8 7 7 6 6 6 6 6 6 7 7 7 8 8 8 9 9 9 9 9 9 9 9 9 9 9 9 9 9
2 1 1 0 0 0 1 1 1 1 1 1 1 1 1 1 1 1 1 2 2 2 2 2 2 2 2 3 3 3 3 4 4 5 6 6 6 7 7 7 8 8 9 9 10 10 11 11 11 11 11 11 11 11 11 10 10 9 8 8 8 8 7 7 8 8 8 8 8 9 9 9 9 9 9 10 9 9 9 9 9 9 9 9 9 9
1 1 0 0 0 0 1 1 1 1 1 1 1 1 1 1 1 1 1 2 2 2 2 2 2 2 2 2 3 3 3 3 3 4 4 4 5 6 6 7 8 8 9 10 10 11 11 11 11 12 12 12 12 11 11 11 10 10 9 9 9 8 8 8 9 9 9 9 9 10 10 10 10 10 10 10 9 9 9 9 9 9 9 9 9 9
0 0 0 0 0 0 0 1 1 1 1 1 1 2 2 2 2 1 1 1 2 2 2 2 2 2 2 2 2 3 3 3 4 5 5 6 6 7 7 7 7 8 10 10 11 11 11 11 11 11 11 11 11 11 11 11 10 10 9 9 9 9 9 9 10 10 10 10 10 10 10 10 10 10 9 9 9 9 9 9 9 9 9 9 9 9
0 0 0 0 0 0 0 1 1 1 0 1 1 2 2 2 2 2 1 1 2 2 2 2 2 2 2 2 2 3 3 3 3 4 5 6 7 7 7 7 7 8 10 10 10 11 11 11 11 11 11 11 11 11 10 10 10 10 10 10 10 10 10 10 10 10 11 10 10 10 10 10 10 9 9 9 9 9 9 9 9 9 9 9 9 9
0 0 0 0 0 0 1 1 1 1 1 0 1 1 2 2 2 2 1 1 2 2 2 1 1 1 2 2 2 2 3 2 2 3 3 4 5 5 5 6 6 7 8 8 8 9 9 9 9 9 9 9 9 9 9 9 9 10 10 10 10 11 11 11 11 11 11 11 10 10 10 9 9 9 9 9 9 9 9 9 8 8 8 9 9 9
0 0 0 0 1 1 1 1 1 1 1 1 1 1 1 2 1 1 1 1 1 1 2 2 1 1 1 1 2 2 2 2 2 2 2 3 3 3 4 4 5 5 5 5 5 6 7 7 7 7 7 7 7 8 8 8 9 9 10 10 11 11 11 11 11 11 11 10 10 10 9 9 9 9 9 9 9 9 9 9 9 9 9 9 9 10
0 0 0 1 1 1 1 1 1 1 2 1 1 1 1 1 1 0 0 0 1 1 1 1 1 0 1 1 1 1 2 2 2 2 2 2 2 2 3 4 4 4 4 4 4 4 5 5 5 5 6 6 6 7 7 7 8 9 9 10 10 10 10 10 10 10 10 10 10 9 9 9 9 9 9 9 9 9 9 9 9 9 9 9 10 10
1 0 1 1 1 1 1 1 1 1 1 1 1 1 1 1 0 0 0 1 1 1 1 1 1 0 1 1 1 1 2 2 2 3 4 3 2 1 2 3 4 4 3 3 4 4 4 3 3 3 4 5 6 6 7 7 8 9 9 10 10 10 10 10 10 10 10 10 10 9 9 9 9 9 9 9 10 10 10 10 10 10 10 10 10 10
0 0 1 0 0 0 1 1 1 1 1 1 1 1 1 0 0 0 1 1 1 1 1 1 2 1 0 1 1 1 2 2 3 3 5 4 2 1 1 3 4 4 3 3 3 3 3 2 2 3 3 5 7 8 9 8 9 9 9 10 10 10 10 10 10 10 10 10 10 10 10 10 10 10 9 9 10 10 10 10 10 10 10 10 11 11
0 0 0 0 0 0 0 0 0 1 1 0 0 1 1 1 0 0 0 0 0 0 1 1 2 2 2 0 1 2 2 3 4 4 5 5 3 1 1 2 3 4 3 3 3 3 3 2 2 2 3 6 8 9 10 10 10 10 10 10 10 10 10 10 10 10 10 10 10 10 10 10 10 10 10 9 9 9 9 10 10 10 10 10 11 11
0 0 0 0 0 0 0 0 0 0 0 0 0 0 0 0 0 0 0 0 0 0 0 0 0 1 2 2 1 1 2 3 4 5 6 6 4 2 1 1 2 3 3 3 3 2 2 2 2 3 4 8 10 11 12 12 11 11 11 11 11 11 11 11 11 11 11 10 10 10 10 10 10 10 9 9 9 9 9 10 10 10 10 11 11 11
0 0 0 0 0 0 0 0 0 0 0 0 0 0 0 0 0 0 0 0 0 0 0 0 0 1 1 3 2 2 2 2 3 5 5 6 4 2 1 1 2 2 3 3 3 2 2 2 3 5 8 10 12 12 13 12 12 12 12 12 11 11 11 11 11 11 11 11 10 10 10 10 10 9 9 9 9 9 10 10 10 10 11 11 11 11
0 0 0 0 0 0 0 0 0 1 1 1 1 0 0 0 0 0 0 0 0 0 0 0 1 1 1 2 2 2 1 2 3 4 4 5 4 2 1 1 2 2 3 2 2 2 2 3 4 6 9 10 12 13 13 12 12 12 12 12 11 11 11 11 11 11 11 11 10 10 10 9 9 9 9 9 9 9 10 10 11 11 11 12 12 12
1 0 1 1 1 0 0 0 0 1 1 1 1 1 0 0 0 0 0 0 0 0 0 0 1 1 1 2 3 2 1 2 3 3 3 3 3 2 1 1 2 3 3 3 2 2 2 4 4 5 7 10 11 12 12 12 12 11 11 11 11 11 11 11 11 11 10 10 10 9 9 9 8 8 8 9 9 10 10 11 11 12 12 12 12 13
1 1 1 2 1 1 1 1 1 1 2 2 1 1 0 0 0 1 0 1 1 1 1 1 1 1 1 2 2 1 1 1 2 2 2 3 3 2 1 1 2 3 4 3 3 3 4 4 5 5 7 9 11 11 11 11 11 10 10 10 10 10 10 10 10 10 9 9 9 8 8 8 8 8 9 9 10 10 11 11 11 12 12 12 12 13
2 1 2 2 2 2 2 2 1 1 2 2 2 1 1 1 1 1 1 1 1 2 2 2 1 1 1 2 2 1 0 0 1 1 2 3 3 2 1 1 2 3 4 4 4 5 5 5 5 5 7 9 10 10 10 9 9 9 9 9 9 9 9 8 8 8 8 7 7 7 8 8 8 9 9 10 10 11 11 11 12 12 12 12 12 12
1 1 2 2 2 2 2 2 1 1 2 2 2 2 2 1 1 1 1 1 1 1 1 1 2 2 2 2 2 1 1 1 1 1 1 2 3 2 1 1 2 4 5 5 5 5 6 6 5 4 4 7 8 8 8 8 7 7 7 7 6 6 6 6 6 6 6 7 7 8 8 9 9 9 10 10 11 11 11 12 12 12 12 12 12 12
1 1 1 2 2 2 2 2 2 1 1 2 2 2 2 2 2 1 1 1 1 1 2 3 3 3 2 2 2 1 1 1 1 1 1 2 2 2 1 1 2 4 5 5 5 5 6 5 4 3 3 4 6 7 8 7 7 6 6 6 6 6 6 7 7 7 7 8 8 8 9 9 10 10 10 11 11 11 11 11 12 12 12 12 12 13
2 2 1 1 1 2 4 6 6 6 6 4 3 2 2 2 2 2 2 2 2 2 3 4 4 4 2 1 1 1 1 1 1 1 1 1 2 2 1 0 1 3 6 6 6 6 6 5 4 3 2 3 5 6 7 8 8 8 8 8 8 8 8 8 8 8 8 8 9 9 9 9 10 10 10 10 11 11 11 11 12 12 12 12 12 12
2 2 3 4 5 6 7 8 9 9 10 9 7 4 2 2 2 2 2 2 2 3 3 4 4 4 3 2 2 2 1 1 1 1 1 1 2 2 1 1 1 3 6 6 5 5 5 4 3 3 2 2 3 5 7 8 9 9 9 9 9 9 9 9 9 9 9 9 9 9 9 9 10 10 10 10 11 11 11 11 12 12 12 12 11 10
5 5 5 6 6 7 7 7 8 8 9 9 9 7 2 1 2 2 3 2 2 2 3 4 4 3 3 3 2 2 1 1 1 1 1 1 2 2 1 1 1 3 5 5 5 4 4 3 3 2 2 2 3 4 6 8 9 9 10 10 10 10 9 9 9 9 9 9 9 9 9 9 10 10 10 10 11 11 11 11 12 12 11 10 8 7
5 5 5 5 6 6 6 6 7 7 8 8 8 6 2 1 2 3 3 2 1 2 3 4 4 3 3 3 3 2 1 0 1 2 2 1 1 2 1 1 1 2 4 4 4 3 2 2 1 1 2 3 3 4 5 6 7 8 8 9 9 9 9 9 9 9 9 9 9 9 10 10 10 10 10 11 11 11 11 11 11 10 9 8 7 6
3 4 4 4 4 5 5 5 5 6 6 6 5 4 2 0 1 2 2 1 2 2 3 3 3 3 3 3 3 2 1 1 2 2 2 1 2 2 1 1 2 2 3 4 4 3 1 1 1 1 2 3 4 4 4 5 5 5 6 7 7 8 9 9 10 10 10 10 10 10 10 10 10 11 11 11 11 11 11 11 10 9 6 6 6 6
2 2 2 3 3 3 3 3 3 3 4 4 3 2 2 1 0 1 1 1 1 2 2 2 2 2 2 2 2 2 1 1 2 3 2 1 2 2 2 3 2 2 2 3 3 3 3 1 1 1 2 3 4 4 5 5 5 4 4 5 5 6 8 9 9 10 10 10 10 11 11 11 11 11 11 11 11 11 11 11 10 8 6 6 6 6
1 1 2 2 2 3 3 2 2 2 2 1 1 1 1 1 1 1 1 1 1 1 1 1 1 1 2 2 2 2 2 0 2 4 3 1 2 2 2 3 3 2 1 2 2 2 2 2 2 2 3 4 4 4 4 4 4 4 4 4 4 5 7 8 9 9 9 9 10 10 11 11 11 11 11 11 11 11 11 11 10 8 6 6 6 6
1 1 2 2 2 2 2 2 1 1 1 0 1 1 1 1 1 1 1 1 1 1 1 1 1 1 1 2 2 3 3 1 2 3 4 2 2 2 2 3 3 3 2 2 2 2 3 3 3 4 4 4 4 4 4 4 4 4 4 4 4 4 6 7 7 7 7 8 8 8 9 10 10 10 11 11 11 11 11 11 10 9 7 6 6 6
1 1 2 2 2 2 2 1 1 1 1 0 0 1 1 0 0 1 1 1 1 1 1 1 1 1 1 2 2 3 3 2 1 1 2 2 2 2 3 3 3 3 3 2 2 3 3 4 4 4 4 4 4 3 3 3 3 3 3 3 3 4 5 5 6 6 6 6 6 6 6 7 8 8 9 10 10 10 11 11 11 10 10 8 6 6
1 1 2 2 2 2 2 1 1 1 1 0 0 0 0 0 0 1 1 1 1 1 1 1 1 1 2 2 3 3 4 2 2 3 4 3 3 3 3 3 3 3 3 3 3 3 3 4 4 5 4 4 4 3 2 2 2 2 2 3 3 4 4 5 5 5 5 5 5 5 5 5 5 6 7 8 9 10 11 11 11 12 12 11 9 8
1 1 1 2 2 2 2 1 1 0 0 0 0 0 0 0 0 0 1 1 1 1 2 2 2 2 2 3 4 4 5 4 3 4 5 4 3 3 3 3 3 3 3 3 3 3 3 4 4 5 5 5 4 3 2 1 2 2 3 3 4 4 5 5 5 5 5 5 5 5 4 4 4 5 5 8 9 10 11 11 12 12 12 12 12 11
1 1 1 1 1 2 2 1 1 0 0 0 0 0 1 1 1 0 0 0 1 1 2 2 3 3 4 4 4 5 5 4 4 4 5 4 4 3 3 3 3 3 3 3 3 3 3 4 4 5 5 4 4 3 3 3 3 3 4 4 4 5 5 5 5 5 4 5 5 5 5 5 5 5 6 8 9 10 10 11 11 12 12 13 13 13
1 1 1 1 1 1 1 1 1 0 0 0 0 0 1 1 1 1 1 1 1 2 2 2 3 4 5 6 6 6 6 6 5 5 5 4 4 4 4 4 4 4 4 4 4 4 4 4 5 5 4 4 4 5 5 4 5 5 5 5 5 5 5 4 4 4 4 4 5 5 6 6 5 5 5 6 6 6 7 7 8 9 10 11 12 13
1 1 1 1 1 1 1 1 1 1 1 1 0 0 0 1 1 1 1 2 2 2 3 3 3 3 4 5 6 7 7 6 6 5 5 4 4 4 5 5 5 5 5 4 4 4 5 5 5 5 4 5 5 5 4 4 5 6 6 5 5 5 4 4 4 4 4 4 5 6 6 5 5 5 5 5 5 5 5 6 6 7 7 7 8 10
1 1 2 2 2 1 2 2 2 1 1 1 0 0 0 1 1 1 1 2 2 2 2 3 3 3 4 4 5 6 6 5 5 5 5 4 4 4 5 5 5 5 4 4 4 5 5 5 6 6 6 5 5 5 5 5 5 6 6 5 4 4 4 4 4 4 4 4 5 5 5 5 5 5 5 5 5 5 5 5 5 6 6 6 6 6
1 1 2 2 2 2 2 3 2 1 1 1 1 0 0 1 1 1 1 2 2 2 2 2 2 3 3 3 4 4 5 5 5 5 4 5 5 5 4 4 4 4 4 4 4 5 5 6 6 6 6 6 6 6 6 6 6 7 7 6 6 6 6 6 6 5 5 4 4 5 5 5 6 6 6 6 6 6 6 6 6 6 6 6 6 6
2 2 2 2 2 2 3 3 2 2 2 1 1 1 1 1 1 1 2 2 2 2 2 2 2 3 3 3 3 3 3 4 4 5 5 5 5 5 5 4 4 4 4 4 5 5 5 6 6 6 6 6 6 6 6 6 7 7 7 7 7 7 7 6 5 4 3 4 4 4 5 6 6 6 6 7 6 6 6 7 7 8 7 7 6 6
2 2 2 2 3 3 3 3 3 1 1 1 1 1 1 1 2 2 3 2 2 2 2 2 3 3 3 3 3 3 3 3 4 4 5 5 5 5 5 5 5 4 4 4 5 5 6 6 6 6 6 6 6 6 7 7 7 7 7 7 7 6 5 4 3 2 3 4 5 5 5 6 6 6 6 7 7 7 7 8 8 9 8 7 7 7
2 2 3 3 3 3 3 2 1 0 1 1 1 1 1 1 2 3 3 2 2 2 2 2 2 3 3 3 3 3 2 2 3 3 4 4 5 5 5 6 6 5 5 4 4 5 5 6 6 6 6 6 6 7 7 7 7 7 7 7 7 6 6 5 5 5 5 6 6 6 6 6 6 6 7 7 7 7 7 7 7 7 8 8 7 7
2 2 2 2 2 2 2 2 1 1 1 1 1 1 1 2 2 3 3 3 2 2 2 2 2 3 3 3 3 3 2 2 2 2 2 4 5 6 6 6 5 5 5 5 5 5 5 5 5 5 5 5 6 7 7 8 8 8 8 7 7 7 7 7 7 7 6 6 6 6 6 6 6 6 7 7 7 7 7 7 7 7 7 7 7 7
2 2 2 2 2 2 3 2 2 1 2 2 2 2 2 2 2 2 3 3 3 3 2 2 2 2 3 3 3 3 3 3 2 2 1 2 3 4 4 5 5 5 5 5 6 6 6 6 5 5 5 6 6 7 8 8 8 8 7 7 7 7 7 7 7 7 7 7 7 7 7 6 6 6 7 7 7 7 7 7 7 7 7 7 7 7
2 2 3 3 2 2 2 2 2 2 3 3 2 2 2 2 2 3 3 3 3 2 2 2 2 3 3 3 3 3 3 4 3 2 2 2 2 3 3 4 4 5 5 5 6 6 7 7 6 6 6 6 7 7 7 7 7 7 7 7 7 7 7 7 7 7 7 7 7 7 7 6 7 7 8 8 7 7 7 7 7 7 7 7 7 7
3 3 3 3 2 2 2 2 2 2 2 2 2 2 2 3 3 3 3 2 2 2 2 2 2 3 3 4 4 4 4 4 4 3 3 3 3 3 3 3 4 4 5 6 7 7 7 8 8 8 7 7 7 7 8 7 7 7 7 7 7 7 7 7 7 7 7 7 7 7 7 6 7 7 8 8 8 8 7 7 7 7 7 7 7 7
3 3 3 3 2 2 2 2 2 2 3 3 3 3 3 3 4 4 3 2 2 2 2 2 3 3 3 3 4 4 5 4 4 4 3 3 3 3 3 3 4 4 4 5 6 6 7 8 9 9 9 8 8 8 8 8 7 7 7 6 7 7 7 7 7 7 7 7 7 7 6 6 7 7 7 8 9 9 9 8 7 7 7 6 7 7
2 3 3 3 3 3 3 3 3 3 3 3 3 3 3 3 3 3 2 2 2 2 2 3 3 3 4 4 4 4 4 4 4 4 4 3 3 3 3 3 4 4 4 4 4 4 5 5 7 8 10 11 10 9 8 8 7 7 7 6 6 7 7 7 7 7 7 8 7 7 7 7 7 7 7 8 9 10 9 9 8 7 7 6 6 7
2 2 3 3 3 3 3 3 3 3 3 3 3 3 3 3 2 2 2 2 2 3 3 3 3 4 4 4 4 4 4 4 4 4 4 3 3 3 4 4 4 4 4 4 3 3 3 3 4 5 7 10 12 11 8 8 7 7 7 7 6 6 6 7 7 7 8 8 7 7 7 7 7 7 7 7 8 9 9 9 8 8 7 6 7 7
Wind_Direction
57 37 16 7 28 70 63 30 22 18 18 12 10 7 4 11 16 21 25 29 33 37 40 40 36 32 29 38 43 47 50 49 49 51 51 48 40 26 5 353 341 332 329 322 314 309 308 303 300 297 296 293 290 288 286 284 283 282 280 279 278 277 277 276 276 276 278 278 281 285 290 295 301 307 311 310 308 304 301 298 297 296 295 294 293 293
54 39 23 8 16 52 78 36 22 15 15 16 12 9 2 6 12 18 23 30 34 38 41 38 34 31 26 29 35 40 42 42 43 42 36 23 3 344 338 336 333 333 336 331 326 322 319 315 311 307 303 299 296 293 290 288 286 284 282 281 280 280 281 283 284 286 289 293 298 302 308 310 312 312 312 309 306 304 302 301 300 300 299 299 297 296
27 25 22 9 11 23 46 32 24 20 23 23 17 13 6 11 17 21 20 23 30 38 43 36 30 26 25 22 23 24 23 23 21 17 9 357 351 352 359 1 1 358 354 348 342 336 331 325 320 315 310 305 302 299 297 295 292 289 288 288 290 292 295 296 297 299 303 308 313 317 321 320 319 317 314 310 308 308 308 309 309 309 308 307 305 303
19 16 16 7 13 20 22 16 17 22 31 31 26 21 18 24 26 27 20 17 22 29 35 30 25 21 20 17 14 11 9 7 5 4 2 4 9 14 19 18 12 6 360 353 346 340 334 328 323 318 314 311 309 308 307 305 304 302 301 304 307 309 311 309 307 306 309 313 316 319 320 319 317 314 312 310 309 310 311 311 313 313 312 310 308 305
34 23 15 4 14 21 18 12 15 26 38 39 36 33 29 32 30 24 16 13 15 17 18 19 18 17 14 9 7 5 3 3 5 8 12 18 22 24 24 19 13 5 359 351 345 339 333 328 323 319 316 315 315 315 315 316 316 316 318 323 324 321 318 312 308 306 308 312 314 315 316 315 313 312 309 308 307 307 307 307 307 307 305 304 302 300
64 46 32 19 21 25 22 19 27 35 40 42 42 41 36 32 26 19 12 7 5 4 3 7 14 17 15 8 5 5 5 8 13 20 26 28 28 25 20 15 9 2 356 350 343 337 331 325 321 318 316 315 315 314 314 315 317 319 322 324 324 320 313 310 309 309 311 313 313 313 311 310 309 307 305 303 302 301 300 299 298 297 295 294 293 292
90 69 48 36 35 42 42 36 39 38 34 29 33 36 38 32 26 20 13 6 2 357 354 2 16 27 27 17 11 8 10 17 24 31 35 33 28 22 16 12 6 0 354 347 340 334 328 322 318 315 312 311 310 308 307 308 310 313 317 319 319 317 313 312 311 311 311 311 309 307 306 304 302 300 298 296 294 293 292 290 289 288 287 286 285 284
111 98 60 50 81 115 101 59 38 29 18 6 1 11 28 38 37 32 25 22 15 7 357 4 22 38 42 28 18 13 15 25 33 38 39 34 27 19 13 8 3 357 351 344 337 331 324 319 314 310 308 305 304 302 301 302 304 308 311 314 314 314 311 310 309 308 306 305 303 301 299 297 295 293 291 289 288 286 285 283 282 282 281 281 279 279
116 116 86 58 201 158 124 92 53 18 351 353 4 15 16 17 22 36 46 46 35 23 9 5 15 33 46 35 23 14 13 25 34 37 33 28 22 15 9 3 358 352 345 339 333 326 320 315 310 306 302 300 298 297 297 298 301 304 307 308 308 307 305 304 302 301 300 298 297 295 293 291 289 287 286 284 283 281 279 277 276 276 276 276 276 276
106 96 60 37 354 352 85 83 67 31 349 25 45 44 32 18 8 4 30 49 43 32 22 14 11 15 26 30 23 16 8 16 24 26 24 19 14 9 3 357 350 343 337 333 328 322 316 311 305 301 298 296 294 293 294 296 298 300 302 301 300 299 298 297 296 295 294 293 292 290 288 286 284 282 281 280 278 276 274 272 272 272 272 274 276 278
30 323 318 341 354 355 16 35 34 20 12 92 95 81 61 34 12 356 8 32 33 25 23 23 16 8 1 8 12 11 7 10 14 17 17 13 10 5 359 350 342 336 331 327 322 317 313 308 303 299 297 295 294 293 295 295 296 296 295 294 293 292 291 291 290 290 289 288 286 285 283 282 281 280 279 277 275 274 273 272 272 272 273 275 277 280
6 307 304 325 347 3 7 2 2 2 13 59 81 77 65 42 17 354 1 21 19 7 358 5 14 15 4 356 357 359 3 3 2 359 359 1 1 358 351 343 335 330 327 322 318 314 310 307 305 302 301 300 300 299 297 295 293 291 289 288 287 287 287 287 286 285 285 283 282 281 280 280 279 279 278 277 277 276 276 276 276 276 276 277 279 281
20 325 329 356 11 11 7 359 4 19 26 25 28 33 34 26 7 350 12 38 22 357 338 331 342 18 33 13 3 356 355 354 350 343 338 342 348 347 341 332 327 324 323 318 313 310 308 309 310 310 311 311 309 305 301 294 290 287 285 284 283 283 282 282 282 281 281 280 280 279 279 279 279 279 279 279 280 280 281 281 281 280 279 279 279 280
22 9 16 26 25 17 10 3 12 27 30 27 19 11 354 345 324 311 25 59 31 343 311 301 303 337 58 47 27 9 351 344 339 332 326 329 335 338 331 321 317 314 314 309 305 305 309 315 317 319 319 318 314 308 301 292 286 283 281 280 279 279 279 279 279 279 280 280 280 280 280 280 280 280 280 281 282 283 284 285 285 285 284 283 283 283
7 14 56 46 30 15 8 358 11 27 30 21 352 313 283 273 283 318 25 30 8 332 314 306 300 291 112 82 51 15 350 344 337 329 322 318 323 334 328 313 309 306 305 303 303 305 312 319 322 320 319 318 315 310 303 291 284 281 281 280 279 279 279 279 279 280 281 281 281 281 280 280 279 279 279 280 282 283 285 287 287 288 288 287 286 286
341 22 81 75 41 356 352 342 342 357 6 347 322 293 272 285 327 12 41 20 346 339 347 340 332 324 172 123 103 49 354 343 335 326 319 313 319 358 358 313 307 305 303 302 303 306 314 318 318 317 316 315 312 310 307 299 292 288 286 284 283 282 281 281 281 282 282 281 281 280 279 279 278 277 277 278 280 281 283 285 286 286 287 287 287 286
320 25 94 100 71 353 329 313 300 302 313 311 317 328 342 352 356 5 85 89 349 3 18 352 333 323 311 150 114 87 16 343 331 323 316 311 319 359 33 317 306 305 306 305 305 307 315 321 324 321 315 314 313 311 308 303 298 294 290 288 286 284 283 282 282 281 280 280 279 278 278 277 277 277 277 277 278 279 280 282 283 283 284 284 284 284
240 227 141 119 108 339 303 290 265 252 261 255 230 81 54 11 350 339 301 272 30 13 30 5 319 311 309 310 347 68 44 346 329 322 314 310 316 346 39 324 301 298 302 303 304 307 315 321 323 320 314 313 312 310 307 303 298 294 290 288 285 284 282 281 280 279 278 277 277 276 276 277 277 277 278 279 279 280 280 281 282 282 283 283 283 283
187 222 208 160 154 232 266 248 232 217 211 199 185 168 148 119 40 311 298 320 10 25 349 303 287 282 290 304 329 23 53 347 325 317 312 308 312 330 27 325 299 295 298 301 306 313 320 317 313 312 311 310 309 307 304 300 296 292 288 286 283 282 280 279 279 278 277 276 276 276 276 276 277 279 280 281 282 283 283 284 284 284 283 283 282 282
148 219 231 197 185 197 246 246 232 220 215 182 163 152 144 150 196 262 327 4 26 36 49 313 296 288 270 300 320 346 26 338 319 312 308 303 306 317 13 333 317 309 305 303 308 315 317 313 309 307 306 306 305 303 301 298 295 291 287 284 282 280 279 278 277 277 277 276 276 276 276 276 278 279 281 283 285 286 286 286 286 285 284 283 282 281
129 158 205 202 199 210 259 275 255 222 196 162 145 133 160 196 240 259 70 65 54 61 90 273 275 273 249 290 305 326 14 334 319 313 305 297 295 300 14 341 324 313 307 305 306 309 309 307 303 301 300 302 303 303 302 299 295 291 288 284 281 279 277 276 276 275 275 275 275 276 276 278 280 282 283 285 286 286 286 285 285 284 283 282 282 281
123 144 186 200 215 247 288 288 275 220 173 168 173 198 190 207 254 267 200 173 191 213 226 243 250 251 244 278 296 332 37 322 307 306 299 292 289 294 35 347 316 307 305 308 312 313 307 302 298 296 298 303 305 305 304 301 297 292 288 284 281 278 276 275 274 274 273 275 276 279 281 284 286 287 287 287 286 285 285 284 283 283 282 281 281 280
123 144 176 195 212 234 266 273 270 230 186 198 220 236 205 219 255 267 223 203 213 236 253 254 242 222 228 255 266 276 119 242 261 274 281 287 293 306 29 344 314 307 306 313 316 315 308 302 298 299 302 308 311 311 310 306 300 295 290 285 281 278 275 274 275 277 279 282 286 289 290 291 292 291 290 288 287 285 285 284 283 282 281 280 280 279
134 155 176 193 208 225 250 263 256 223 200 214 225 228 212 224 239 248 211 195 212 239 254 253 247 237 226 241 245 230 148 168 208 238 261 284 295 311 1 343 321 314 312 317 318 314 307 302 301 303 308 317 320 321 319 315 310 305 301 295 293 292 290 291 293 296 298 299 299 299 298 296 295 293 291 289 287 286 285 284 283 282 280 279 278 277
161 172 181 197 208 221 249 277 285 276 233 227 225 222 215 221 218 205 183 183 216 243 261 272 274 272 266 277 277 261 135 150 189 225 249 280 292 303 335 344 323 317 316 317 315 310 303 301 302 308 317 326 330 332 332 331 330 330 330 328 326 324 323 320 317 315 311 307 305 302 300 298 296 294 292 290 288 286 285 284 283 282 281 280 279 277
158 168 177 209 294 328 339 336 334 329 315 301 277 234 202 208 210 213 219 221 228 246 265 277 283 285 286 284 284 281 162 157 181 213 234 274 291 298 310 338 322 315 314 313 313 310 304 303 307 317 332 336 337 338 341 344 346 347 347 344 340 336 332 327 321 316 312 308 305 303 301 300 298 296 293 291 290 288 286 285 285 284 283 282 280 278
81 47 26 15 7 2 356 348 340 330 319 313 305 287 223 196 202 227 243 240 243 255 270 277 282 286 288 282 282 283 260 162 167 188 215 259 284 294 307 318 316 312 312 311 310 309 304 304 310 324 335 334 333 336 343 346 348 348 346 343 339 335 330 325 320 315 311 309 306 304 303 301 299 298 296 294 292 291 289 289 288 287 287 286 283 279
39 30 23 16 10 2 353 342 331 323 317 311 306 302 287 207 209 240 256 253 255 261 269 274 280 285 289 289 293 296 295 168 147 160 197 234 269 288 307 308 306 308 313 309 307 304 300 300 305 316 321 324 324 330 339 343 344 343 341 339 337 334 331 327 323 319 315 312 309 307 306 304 302 301 300 298 296 295 293 292 291 290 288 286 283 279
28 20 14 8 3 358 351 340 330 320 315 311 310 314 335 228 226 242 253 244 242 251 261 268 273 280 286 291 295 297 290 150 138 152 186 223 262 281 295 292 299 309 319 313 309 303 290 282 284 295 303 318 324 331 336 340 339 338 336 336 335 333 332 330 327 324 320 317 314 311 309 307 306 304 303 302 300 298 296 295 294 292 288 285 283 280
10 3 356 353 353 352 347 336 324 318 317 316 321 334 18 347 237 243 243 223 224 238 251 260 267 274 283 292 296 296 276 146 138 150 184 234 278 296 305 304 314 326 332 324 320 315 303 279 260 270 291 316 324 330 332 333 332 331 330 331 331 331 331 330 328 325 322 319 316 313 311 309 308 307 305 304 303 301 299 298 296 293 288 285 281 279
342 337 324 326 331 334 332 326 320 319 322 330 345 17 60 81 188 239 219 201 211 225 240 251 259 267 274 286 291 290 280 150 143 153 185 240 288 306 318 315 321 331 344 337 329 321 318 314 293 284 300 317 322 324 325 325 324 325 324 324 325 326 327 327 325 322 319 316 314 312 310 309 308 307 306 305 304 303 301 300 298 295 289 285 281 278
300 303 298 303 309 315 319 320 319 318 321 345 15 51 81 100 120 154 171 182 187 196 213 228 243 255 265 273 276 280 286 210 154 162 185 232 280 298 312 311 313 316 318 325 316 307 306 305 305 308 313 315 314 314 314 315 315 316 317 318 317 318 321 321 320 318 315 313 311 310 309 308 307 307 306 306 305 303 302 301 298 295 290 285 282 279
277 283 286 297 303 307 309 313 309 302 294 352 64 72 75 92 117 132 148 164 173 175 175 191 218 246 264 270 273 275 282 278 176 174 195 235 276 294 303 302 304 305 306 300 283 271 272 285 296 304 307 304 302 301 303 305 306 309 313 313 313 312 315 316 315 313 310 309 308 307 306 307 306 306 305 305 304 303 302 300 297 293 287 284 280 278
278 284 294 304 308 307 305 305 293 277 259 188 108 98 100 119 135 138 145 164 182 189 182 193 213 238 261 273 275 274 275 279 265 245 246 270 287 295 298 295 296 297 299 291 279 270 265 274 284 293 298 297 294 291 291 293 297 302 305 303 302 303 305 309 309 307 305 305 304 303 303 304 303 303 303 302 301 300 299 297 294 290 287 284 281 280
282 291 306 317 317 314 310 304 278 247 227 191 96 85 113 164 166 164 162 173 187 202 208 215 223 236 251 267 274 276 276 281 297 302 296 292 291 292 292 287 288 289 289 284 280 278 275 277 282 288 295 297 295 288 276 271 278 284 283 282 284 289 294 298 299 299 300 299 298 297 297 297 297 298 297 296 295 295 294 293 292 290 289 287 286 285
293 299 315 323 322 317 312 305 289 252 210 136 40 308 287 265 210 177 167 179 194 209 217 224 230 235 241 253 265 272 277 283 290 291 288 286 286 285 284 281 280 280 278 277 277 279 281 284 286 288 291 293 294 294 287 270 263 266 273 280 284 287 289 290 289 290 292 293 292 292 292 292 290 289 288 289 290 291 292 292 292 292 291 290 288 286
290 297 309 315 312 308 299 294 286 270 259 253 235 249 270 293 315 335 352 223 224 233 241 241 240 241 241 247 255 264 274 279 280 278 276 275 273 273 273 274 273 271 269 273 276 280 285 287 289 289 287 286 290 297 306 306 300 293 292 295 294 292 289 287 285 284 285 285 286 288 288 286 285 284 284 287 289 291 292 293 292 291 290 289 286 284
283 293 299 297 289 282 282 278 270 251 219 223 248 270 295 309 322 329 323 299 278 266 264 260 258 256 255 259 262 264 268 268 266 263 261 261 262 263 265 269 268 265 263 267 272 278 282 285 289 291 289 287 288 294 303 308 308 306 305 302 297 291 287 283 280 277 275 278 281 283 284 284 283 284 286 288 290 291 290 288 287 287 288 286 284 282
262 282 285 281 270 256 251 260 258 243 215 219 223 264 309 296 295 296 293 290 283 275 270 270 271 269 264 264 265 265 265 262 257 252 250 249 251 256 261 266 266 265 262 262 264 267 271 276 280 285 290 292 294 296 298 300 302 303 305 303 297 290 283 279 272 268 269 273 277 280 282 282 282 282 282 282 282 282 282 283 283 284 286 286 284 281
251 263 273 276 271 256 241 248 245 230 192 187 177 188 259 285 291 289 280 279 277 274 270 267 269 270 268 267 267 266 266 265 260 255 250 244 243 246 253 260 264 265 264 259 257 259 263 268 272 277 282 287 292 295 296 296 297 301 305 303 300 297 298 293 286 279 273 272 274 276 278 278 276 274 273 273 272 272 275 278 281 282 283 284 284 283
243 250 262 272 273 266 257 255 244 209 164 151 146 167 242 279 285 284 281 283 282 281 282 277 274 272 271 266 264 263 263 262 259 255 248 240 237 239 247 253 258 262 263 259 256 255 258 264 269 273 276 281 285 287 288 290 293 295 297 295 294 296 301 296 290 285 278 271 268 268 271 275 275 275 275 274 273 272 272 274 277 278 278 274 273 274
258 259 263 271 276 278 277 266 245 207 161 149 155 182 213 244 269 280 285 292 294 296 301 303 302 299 295 280 264 251 246 246 246 244 243 236 232 231 237 243 249 254 258 259 258 256 256 261 266 270 274 278 282 285 286 286 288 288 288 287 291 293 293 286 279 272 269 266 263 262 266 272 276 278 279 279 278 276 273 271 271 271 271 268 265 264
260 266 269 275 277 279 278 271 258 224 157 159 170 199 228 263 290 301 302 298 297 297 301 302 301 300 297 294 288 273 250 236 235 237 238 232 226 224 227 231 235 240 247 256 259 259 257 258 261 265 269 273 277 280 283 285 286 284 282 283 288 291 291 287 283 275 270 272 272 270 269 272 275 277 279 279 278 276 272 268 266 265 265 266 265 263
267 272 276 273 271 268 267 263 254 194 144 188 219 245 264 280 295 301 302 296 293 294 295 289 285 283 282 285 288 288 282 262 244 237 240 234 227 222 224 229 232 234 235 246 255 262 263 261 260 262 265 268 271 274 278 281 283 283 282 281 281 279 278 286 293 293 288 284 280 278 275 276 277 278 279 277 275 273 270 267 264 262 261 261 262 262
273 274 273 268 259 248 239 227 205 168 191 247 275 286 288 289 293 296 292 288 288 286 284 285 285 284 283 288 291 295 297 289 265 243 243 244 239 235 232 233 235 236 236 242 250 258 265 267 268 268 268 266 266 268 272 277 279 281 280 280 278 275 273 279 283 285 284 282 280 278 276 277 277 278 278 277 275 274 271 269 267 264 260 257 256 257
251 256 256 252 246 244 250 248 242 241 261 280 288 292 292 290 285 282 280 279 278 278 277 279 281 283 287 294 298 302 303 299 290 270 243 248 247 245 242 242 242 242 241 245 249 253 257 263 269 273 274 270 267 265 266 271 274 277 279 280 280 279 278 278 278 277 278 278 278 279 279 279 278 278 278 278 277 276 274 271 268 266 264 259 256 254
246 247 245 240 235 237 251 262 268 274 280 285 287 287 286 282 278 273 270 268 270 272 274 274 276 280 285 292 298 301 303 302 301 295 280 276 266 257 253 252 251 249 249 250 252 252 254 256 259 263 268 270 270 269 267 267 269 272 276 279 280 280 279 278 277 276 276 276 277 279 283 284 282 280 280 281 282 281 278 275 272 269 267 264 261 258
250 251 248 242 239 240 248 257 270 282 285 285 283 281 279 276 272 270 267 269 276 282 288 285 283 281 282 285 288 290 293 295 297 299 298 298 290 278 266 262 259 257 255 255 255 256 255 253 251 250 253 258 264 267 269 267 267 268 271 275 277 278 278 278 278 277 276 274 274 276 279 279 280 281 284 286 284 283 280 278 275 272 269 267 265 263
265 263 259 253 246 244 248 252 261 271 276 278 278 279 277 274 275 276 280 284 287 288 286 281 278 277 277 278 280 283 286 289 292 294 295 293 290 285 277 273 268 265 263 261 260 258 257 253 247 243 240 244 251 258 264 265 266 266 267 269 271 272 274 276 277 278 278 276 273 269 266 269 272 276 281 283 283 282 282 281 278 276 273 270 267 265
275 273 270 260 252 248 250 255 261 266 270 274 277 278 277 271 267 267 271 278 281 279 274 272 270 271 273 275 278 279 281 284 286 288 288 290 291 290 286 284 283 282 280 275 270 266 264 259 249 239 233 233 237 245 255 260 263 264 263 263 263 265 268 272 274 276 277 278 276 272 266 266 267 269 271 275 278 280 282 281 279 278 276 273 270 266
274 276 272 261 254 250 253 257 262 266 269 272 274 275 274 271 265 260 258 268 273 275 272 268 266 267 269 273 276 277 279 281 284 287 289 291 293 292 290 290 292 293 293 290 287 286 284 282 272 255 237 229 228 231 243 252 259 262 263 261 260 262 265 269 272 274 276 278 278 276 272 269 266 265 264 269 274 278 281 281 280 280 279 277 274 271